Tracking 19286 objects as of 19-Nov-2018
HD Live streaming from Space Station
objects crossing your sky now

REMDEB-DS2

Track REMDEB-DS2 now!
10-day predictions


NORAD ID: 43680
Int'l Code: 1998-067PR
Perigee: 403.4 km
Apogee: 409.7 km
Inclination: 51.6 °
Period: 92.5 minutes
Semi major axis: 6777 km
RCS: Unknown
Launch date: November 20, 1998
Source: United Kingdom (UK)
Launch site: TYURATAM MISSILE AND SPACE COMPLEX (TTMTR)
aabbcc
Your satellite tracking list
Your tracking list is empty




NASA's NSSDC Master Catalog

Two Line Element Set (TLE):
1 43680U 98067PR  18323.54105269  .00010980  00000-0  16189-3 0  9996
2 43680  51.6412 323.3585 0004685  68.4917 291.6573 15.55936487 23651
Source of the keplerian elements: AFSPC